Weather History for Evergreen, AL

Change the Weather History Date:

Saturday, April 26, 2014

  Actual Average (KPRN) Record (KPRN)
Temperature  
Mean Temperature 71 °F -  
Max Temperature 88 °F 78 °F 90 °F (1958)
Min Temperature 54 °F 53 °F 39 °F (1983)
Cooling Degree Days 6    
Growing Degree Days 21 (Base 50)    
Moisture  
Dew Point 58 °F    
Average Humidity 67    
Maximum Humidity 93    
Minimum Humidity 34    
Precipitation  
Precipitation 0.00 in - - ()
Sea Level Pressure  
Sea Level Pressure 29.98 in    
Wind  
Wind Speed 2 mph (SSE)    
Max Wind Speed 9 mph    
Max Gust Speed -    
Visibility 9 miles    
Events Rain    
Averages and records for this station are not official NWS values.
T = Trace of Precipitation, MM = Missing Value Source: NWS Daily Summary

Daily Weather History Graph

Daily Weather History Graph

Search for Another Location

Airport:

Trip Planner

Search our weather history database for the weather conditions in past years. The results will help you decide how hot, cold, wet, or windy it might be!

Date:

Astronomy

Apr. 26, 2014 Rise Set
Actual Time 6:08 AM CDT 7:24 PM CDT
Civil Twilight 5:42 AM CDT 7:49 PM CDT
Nautical Twilight 5:12 AM CDT 8:20 PM CDT
Astronomical Twilight 4:40 AM CDT 8:51 PM CDT
Moon 4:20 AM CDT (4/26) 5:01 PM CDT (4/26)
Length of Visible Light 14h 07m
Length of Day
13h 16m
Waning Crescent, 8% of the Moon is Illuminated
Apr 26
Waning Crescent
Apr 29
New
May 6
First Quarter
May 14
Full
May 21
Last Quarter

Hourly Weather History & Observations

Time (CDT) Temp. Heat Index Dew Point Humidity Pressure Visibility Wind Dir Wind Speed Gust Speed Precip Events Conditions
12:53 AM 60.1 °F - 55.9 °F 86% 29.98 in 9.0 mi Calm Calm - N/A   Clear
1:53 AM 57.9 °F - 55.0 °F 90% 29.95 in 4.0 mi Calm Calm - N/A   Clear
2:53 AM 57.0 °F - 54.0 °F 89% 29.95 in 8.0 mi Calm Calm - N/A   Clear
3:53 AM 55.9 °F - 53.1 °F 90% 29.96 in 8.0 mi Calm Calm - N/A   Clear
4:53 AM 54.0 °F - 52.0 °F 93% 29.97 in 8.0 mi Calm Calm - N/A   Clear
5:53 AM 55.0 °F - 52.0 °F 89% 29.99 in 9.0 mi Calm Calm - N/A   Clear
6:53 AM 55.9 °F - 54.0 °F 93% 30.02 in 8.0 mi Calm Calm - N/A   Clear
7:53 AM 64.0 °F - 57.9 °F 80% 30.02 in 10.0 mi Calm Calm - N/A   Clear
8:53 AM 72.0 °F - 60.1 °F 66% 30.02 in 10.0 mi SE 3.5 mph - N/A   Clear
9:53 AM 78.1 °F - 60.1 °F 54% 30.04 in 10.0 mi SE 8.1 mph - N/A   Clear
10:53 AM 80.1 °F 80.6 °F 57.9 °F 47% 30.04 in 10.0 mi SSE 4.6 mph - N/A   Clear
11:53 AM 84.0 °F 83.3 °F 57.0 °F 40% 30.01 in 10.0 mi East 5.8 mph - N/A   Partly Cloudy
12:53 PM 84.9 °F 83.7 °F 55.9 °F 37% 30.00 in 10.0 mi SSE 8.1 mph - 0.00 in   Partly Cloudy
1:53 PM 86.0 °F 84.9 °F 57.0 °F 37% 29.98 in 10.0 mi South 6.9 mph - 0.00 in Rain Light Rain
2:53 PM 87.1 °F 85.9 °F 57.0 °F 36% 29.96 in 10.0 mi South 9.2 mph - 0.00 in Rain Light Rain
3:53 PM 87.1 °F 85.7 °F 55.9 °F 35% 29.94 in 10.0 mi South 5.8 mph - 0.00 in   Partly Cloudy
4:53 PM 88.0 °F 86.5 °F 55.9 °F 34% 29.94 in 10.0 mi Variable 3.5 mph - N/A   Clear
5:53 PM 86.0 °F 85.7 °F 60.1 °F 41% 29.93 in 10.0 mi South 6.9 mph - N/A   Clear
6:53 PM 81.0 °F 83.0 °F 66.0 °F 60% 29.93 in 9.0 mi SSW 8.1 mph - N/A   Clear
7:53 PM 77.0 °F - 66.0 °F 69% 29.95 in 10.0 mi SSW 6.9 mph - N/A   Clear
8:53 PM 73.9 °F - 66.0 °F 76% 29.97 in 10.0 mi South 8.1 mph - N/A   Clear
9:53 PM 73.0 °F - 66.0 °F 79% 29.98 in 10.0 mi SSE 3.5 mph - N/A   Clear
10:53 PM 68.0 °F - 64.9 °F 90% 29.98 in 6.0 mi Calm Calm - N/A   Clear
11:53 PM 66.9 °F - 64.0 °F 90% 29.98 in 4.0 mi Calm Calm - N/A   Clear